CAPE
0 0 0 0 0 0 0 0 0 0 0 0 0 0 0 0 0 0 0 0 0 0 0 0 0 55 292 786 738 50 0 0 0 0 0 9 8 9 87 271 581 548 537 735 1263
0 0 0 0 0 0 0 0 0 0 0 0 0 0 0 0 0 0 0 0 0 0 0 0 0 74 537 594 1083 1031 21 0 3 0 0 1 0 0 38 83 160 366 751 1039 1381
0 0 0 0 0 0 0 0 0 0 0 0 0 0 0 0 0 0 0 0 0 0 0 0 0 89 3 95 634 808 125 141 25 0 0 0 0 0 0 0 0 14 264 1134 1334
0 0 0 0 0 0 0 0 0 0 0 0 0 0 0 0 0 0 0 0 0 0 0 0 0 0 0 9 129 188 270 103 1 0 0 0 0 0 0 0 0 0 93 848 1041
0 0 0 0 0 0 0 0 0 0 0 0 0 0 0 0 0 0 0 0 0 0 0 0 0 0 0 0 0 4 0 0 0 0 0 0 0 0 0 0 0 0 172 360 988
0 0 0 0 0 0 0 0 0 0 0 0 0 0 0 0 0 0 0 0 0 0 0 0 0 0 0 0 0 0 0 0 0 0 0 0 0 0 0 0 0 0 19 357 517
0 0 0 0 0 0 0 0 0 0 0 0 0 0 0 0 0 0 0 0 0 0 0 0 0 0 0 0 0 0 0 0 0 0 0 0 0 0 0 0 0 0 0 236 493
0 0 0 0 0 0 0 0 0 0 0 0 0 0 0 0 0 0 0 0 0 0 0 0 0 0 0 0 0 0 0 0 0 0 0 0 0 0 0 0 0 0 0 166 606
0 0 0 0 0 0 0 0 0 0 0 0 0 0 0 0 0 0 0 0 0 0 0 0 0 0 0 0 0 0 0 0 0 0 0 0 0 0 0 0 0 0 0 276 484
0 0 0 0 0 0 0 0 0 0 0 0 0 0 0 0 0 0 0 0 0 0 0 0 0 0 0 0 0 0 0 0 0 0 0 0 0 0 0 0 0 0 0 80 663
0 0 0 0 0 0 0 0 0 0 0 0 0 0 0 0 0 0 0 0 0 0 0 0 0 0 0 0 0 0 0 0 0 0 0 0 0 0 0 0 0 0 0 55 467
0 0 0 0 0 0 0 0 0 0 0 0 0 0 0 0 0 0 0 0 0 0 0 0 0 0 0 0 0 0 0 0 0 0 0 0 0 0 0 0 0 0 0 0 45
0 0 0 0 0 0 0 0 0 0 0 0 0 0 0 0 0 0 0 0 0 0 0 0 0 0 0 0 0 0 0 0 0 0 0 0 0 0 0 0 0 0 0 0 0
0 0 0 0 0 0 0 0 0 0 0 0 0 0 0 0 0 0 0 0 0 0 0 0 0 0 0 0 0 0 0 0 0 0 0 0 0 0 0 0 0 0 0 0 0
0 0 0 0 0 0 0 0 0 0 0 0 0 0 0 0 0 0 0 0 0 0 0 0 0 0 0 0 0 0 0 0 0 0 0 0 0 0 0 0 0 0 0 0 0
0 0 0 0 0 0 0 0 0 0 0 0 0 0 0 0 0 0 0 0 0 0 0 0 0 0 0 0 0 0 0 0 0 0 0 0 0 0 0 0 0 0 0 0 0
0 0 0 0 0 0 0 0 0 0 0 0 0 0 0 0 0 0 0 0 0 0 0 0 0 0 0 0 0 0 0 0 0 0 0 0 0 0 0 0 0 0 0 0 24
0 0 0 0 0 0 0 0 0 0 0 0 0 0 0 0 0 0 0 0 0 0 0 0 0 0 0 0 0 0 0 0 0 0 0 0 0 0 0 0 0 0 0 34 82
0 0 0 0 0 0 0 0 0 0 0 0 0 0 0 0 0 0 0 0 0 0 0 0 0 0 0 0 0 0 0 0 0 0 0 0 0 0 0 0 0 0 0 0 0
0 0 0 0 0 0 0 0 0 0 0 0 0 0 0 0 0 0 0 0 0 0 0 0 0 0 0 0 0 0 0 0 0 0 0 0 0 0 0 0 0 0 7 17 0
0 0 0 0 0 0 0 0 0 0 0 0 0 0 0 0 0 0 0 0 0 0 0 0 0 0 0 0 0 0 0 0 0 0 0 0 0 0 0 0 0 0 15 33 0
0 0 0 0 0 0 0 0 0 0 0 0 0 0 0 0 0 0 0 0 0 0 0 0 0 0 0 0 0 0 0 0 0 0 0 0 0 0 0 0 0 0 11 19 21
0 0 0 0 0 0 0 0 0 0 0 0 0 0 0 0 0 0 0 0 0 0 0 0 0 0 0 0 0 0 0 0 0 0 0 0 0 0 0 0 0 0 2 117 229
0 0 0 0 0 0 0 0 0 0 0 0 0 0 0 0 0 0 0 0 0 0 0 0 0 0 0 0 0 0 0 0 0 0 0 0 0 0 0 0 40 55 146 290 328
0 0 0 0 0 0 0 0 0 0 0 0 0 0 0 0 0 0 0 0 0 0 0 0 0 0 0 0 0 0 0 0 0 0 0 0 0 0 0 35 11 37 125 116 88
0 0 0 0 0 0 0 0 0 0 0 0 0 0 0 0 0 0 0 0 0 0 0 0 0 0 0 0 0 0 0 0 0 0 0 0 0 1 30 20 69 80 17 13 89
0 0 0 0 0 0 0 0 0 0 0 0 0 0 0 0 0 0 0 0 0 0 0 0 0 0 0 0 0 0 0 0 0 0 0 0 6 2 32 65 99 25 0 0 141
CIN
0 0 0 0 0 0 0 0 0 0 0 0 0 0 0 0 0 0 0 0 0 0 0 0 0 -475 -320 -198 -215 -378 0 0 0 0 0 -93 -107 -139 -140 -93 -94 -69 -109 -144 -284
0 0 0 0 0 0 0 0 0 0 0 0 0 0 0 0 0 0 0 0 0 0 0 0 0 -414 -179 -163 -120 -82 -118 0 -64 0 0 -40 0 0 -118 -99 -112 -124 -182 -289 -296
0 0 0 0 0 0 0 0 0 0 0 0 0 0 0 0 0 0 0 0 0 0 0 0 0 -364 -50 -297 -100 -89 -97 -93 -132 0 0 0 0 0 0 0 0 -168 -129 -337 -330
0 0 0 0 0 0 0 0 0 0 0 0 0 0 0 0 0 0 0 0 0 0 0 0 0 0 0 -295 -241 -158 -113 -151 -65 0 0 0 0 0 0 0 0 0 -192 -308 -390
0 0 0 0 0 0 0 0 0 0 0 0 0 0 0 0 0 0 0 0 0 0 0 0 0 0 0 0 0 -202 0 0 0 0 0 0 0 0 0 0 0 0 -234 -233 -341
0 0 0 0 0 0 0 0 0 0 0 0 0 0 0 0 0 0 0 0 0 0 0 0 0 0 0 0 0 0 0 0 0 0 0 0 0 0 0 0 0 0 -140 -241 -236
0 0 0 0 0 0 0 0 0 0 0 0 0 0 0 0 0 0 0 0 0 0 0 0 0 0 0 0 0 0 0 0 0 0 0 0 0 0 0 0 0 0 0 -268 -281
0 0 0 0 0 0 0 0 0 0 0 0 0 0 0 0 0 0 0 0 0 0 0 0 0 0 0 0 0 0 0 0 0 0 0 0 0 0 0 0 0 0 0 -269 -316
0 0 0 0 0 0 0 0 0 0 0 0 0 0 0 0 0 0 0 0 0 0 0 0 0 0 0 0 0 0 0 0 0 0 0 0 0 0 0 0 0 0 0 -289 -286
0 0 0 0 0 0 0 0 0 0 0 0 0 0 0 0 0 0 0 0 0 0 0 0 0 0 0 0 0 0 0 0 0 0 0 0 0 0 0 0 0 0 0 -265 -321
0 0 0 0 0 0 0 0 0 0 0 0 0 0 0 0 0 0 0 0 0 0 0 0 0 0 0 0 0 0 0 0 0 0 0 0 0 0 0 0 0 0 0 -256 -321
0 0 0 0 0 0 0 0 0 0 0 0 0 0 0 0 0 0 0 0 0 0 0 0 0 0 0 0 0 0 0 0 0 0 0 0 0 0 0 0 0 0 0 0 -305
0 0 0 0 0 0 0 0 0 0 0 0 0 0 0 0 0 0 0 0 0 0 0 0 0 0 0 0 0 0 0 0 0 0 0 0 0 0 0 0 0 0 0 0 0
0 0 0 0 0 0 0 0 0 0 0 0 0 0 0 0 0 0 0 0 0 0 0 0 0 0 0 0 0 0 0 0 0 0 0 0 0 0 0 0 0 0 0 0 0
0 0 0 0 0 0 0 0 0 0 0 0 0 0 0 0 0 0 0 0 0 0 0 0 0 0 0 0 0 0 0 0 0 0 0 0 0 0 0 0 0 0 0 0 0
0 0 0 0 0 0 0 0 0 0 0 0 0 0 0 0 0 0 0 0 0 0 0 0 0 0 0 0 0 0 0 0 0 0 0 0 0 0 0 0 0 0 0 0 0
0 0 0 0 0 0 0 0 0 0 0 0 0 0 0 0 0 0 0 0 0 0 0 0 0 0 0 0 0 0 0 0 0 0 0 0 0 0 0 0 0 0 0 0 -343
0 0 0 0 0 0 0 0 0 0 0 0 0 0 0 0 0 0 0 0 0 0 0 0 0 0 0 0 0 0 0 0 0 0 0 0 0 0 0 0 0 0 0 -254 -260
0 0 0 0 0 0 0 0 0 0 0 0 0 0 0 0 0 0 0 0 0 0 0 0 0 0 0 0 0 0 0 0 0 0 0 0 0 0 0 0 0 0 0 0 0
0 0 0 0 0 0 0 0 0 0 0 0 0 0 0 0 0 0 0 0 0 0 0 0 0 0 0 0 0 0 0 0 0 0 0 0 0 0 0 0 0 0 -64 -222 0
0 0 0 0 0 0 0 0 0 0 0 0 0 0 0 0 0 0 0 0 0 0 0 0 0 0 0 0 0 0 0 0 0 0 0 0 0 0 0 0 0 0 -149 -203 0
0 0 0 0 0 0 0 0 0 0 0 0 0 0 0 0 0 0 0 0 0 0 0 0 0 0 0 0 0 0 0 0 0 0 0 0 0 0 0 0 0 0 -161 -186 -204
0 0 0 0 0 0 0 0 0 0 0 0 0 0 0 0 0 0 0 0 0 0 0 0 0 0 0 0 0 0 0 0 0 0 0 0 0 0 0 0 0 0 -36 -118 -140
0 0 0 0 0 0 0 0 0 0 0 0 0 0 0 0 0 0 0 0 0 0 0 0 0 0 0 0 0 0 0 0 0 0 0 0 0 0 0 0 -71 -99 -99 -88 -99
0 0 0 0 0 0 0 0 0 0 0 0 0 0 0 0 0 0 0 0 0 0 0 0 0 0 0 0 0 0 0 0 0 0 0 0 0 0 0 -57 -101 -116 -92 -87 -103
0 0 0 0 0 0 0 0 0 0 0 0 0 0 0 0 0 0 0 0 0 0 0 0 0 0 0 0 0 0 0 0 0 0 0 0 0 -1 -89 -102 -80 -78 -96 -89 -78
0 0 0 0 0 0 0 0 0 0 0 0 0 0 0 0 0 0 0 0 0 0 0 0 0 0 0 0 0 0 0 0 0 0 -3 0 -12 -59 -61 -61 -75 -104 0 0 -61
Wind_Speed
20 20 19 17 16 13 12 13 14 14 13 14 14 15 15 16 15 14 15 15 17 20 19 20 19 19 17 15 15 16 16 17 16 16 9 8 7 11 14 13 13 11 12 15 22
21 20 18 16 15 13 13 13 13 13 13 13 14 14 14 14 14 15 16 16 17 20 19 19 18 18 15 15 15 14 14 14 13 10 8 7 7 8 10 7 9 9 14 16 19
22 20 19 18 17 16 15 14 13 12 13 13 14 14 14 15 15 15 15 17 18 18 16 17 17 16 14 14 13 13 11 11 8 9 9 8 7 8 8 6 5 7 10 14 18
23 22 21 20 19 17 16 15 14 14 13 14 14 15 15 16 16 16 15 17 20 16 14 14 13 12 12 11 11 10 8 7 6 6 6 5 6 5 7 6 7 7 11 14 18
25 24 23 23 21 19 18 18 16 13 11 13 14 15 14 15 15 16 18 19 19 15 12 11 11 11 11 11 11 7 7 6 4 6 7 6 9 6 8 10 9 9 11 14 16
26 25 25 25 22 21 21 19 14 11 13 15 16 17 16 15 15 16 18 18 16 13 12 11 10 10 12 9 8 10 3 4 2 6 4 4 6 10 7 7 6 10 12 14 16
27 27 26 26 24 23 22 18 15 14 17 17 16 16 16 16 14 15 17 15 14 13 11 10 10 11 12 8 13 6 6 6 17 16 15 13 11 12 9 7 8 10 11 13 16
29 29 28 27 26 25 23 19 18 17 17 17 16 15 16 16 16 14 14 14 14 13 13 12 10 12 13 14 13 9 12 12 15 18 17 14 13 10 16 12 12 8 9 10 11
31 30 30 29 27 25 23 19 18 17 17 16 15 15 15 14 14 12 11 13 13 13 13 14 12 13 13 13 13 16 11 10 11 16 16 15 10 13 5 4 8 13 8 6 7
31 31 31 29 27 25 22 18 17 16 17 15 14 14 14 14 14 15 11 12 13 13 13 13 13 13 14 13 15 14 12 12 8 15 14 13 12 20 21 17 19 25 23 15 11
32 33 32 30 26 24 22 19 19 16 17 16 14 14 13 13 13 13 13 12 14 13 12 13 12 13 16 12 14 14 14 12 11 14 16 20 20 21 21 21 25 24 22 19 18
34 34 33 31 26 24 21 19 19 18 17 17 15 12 10 13 13 13 12 12 12 13 13 14 14 13 14 14 12 13 14 14 14 17 15 20 18 19 21 20 22 23 24 22 18
35 35 34 32 25 22 20 19 21 16 14 16 15 14 12 12 13 11 11 12 13 13 11 14 15 18 16 15 13 13 12 15 15 17 16 19 14 19 18 18 19 21 21 22 21
36 36 35 32 19 22 18 21 23 12 14 15 15 14 13 13 14 12 11 13 14 14 13 14 16 19 20 17 13 16 14 13 15 17 19 20 18 16 17 18 18 18 20 21 21
37 36 35 27 22 19 19 24 17 14 14 14 14 13 13 13 14 13 10 11 11 13 14 17 17 17 19 19 13 18 18 17 17 16 18 17 16 16 15 15 16 17 20 21 21
37 37 34 21 19 18 23 22 14 16 15 13 14 14 12 14 14 14 12 12 13 12 14 16 17 16 15 15 18 17 19 20 19 17 17 19 15 17 14 15 13 14 18 22 24
38 36 26 19 20 22 23 15 17 16 15 15 15 16 13 15 15 16 13 12 14 16 16 16 17 15 17 15 18 20 25 25 22 20 20 20 18 16 16 12 12 14 16 20 25
38 32 20 19 22 21 17 17 17 16 16 16 16 15 14 16 16 17 15 15 16 15 16 17 16 15 18 17 19 21 23 24 26 23 23 20 19 18 14 11 13 15 18 22 25
36 24 19 22 19 21 17 18 17 16 18 19 16 15 15 16 16 15 17 16 18 16 16 16 15 14 17 18 20 21 23 21 22 22 24 20 19 17 12 12 15 16 19 22 26
30 24 20 26 20 19 17 17 16 17 18 16 17 16 16 17 16 17 16 17 16 17 15 16 18 15 16 18 22 20 17 22 21 27 28 23 22 19 19 21 21 21 22 22 25
24 21 20 24 19 18 18 17 16 17 18 16 17 17 16 17 17 17 17 16 16 18 18 18 19 19 18 21 21 18 19 20 20 21 27 28 21 17 23 23 25 24 25 24 27
23 21 22 21 19 17 17 16 18 19 18 17 17 17 17 16 17 17 16 16 19 19 21 19 20 24 22 20 18 16 17 20 26 26 23 26 25 20 21 26 28 27 27 28 29
24 22 20 19 19 17 17 17 17 19 19 19 18 18 17 16 18 16 15 16 20 19 19 17 20 25 22 18 16 18 19 20 22 23 24 27 28 23 30 32 28 24 25 30 31
22 22 20 17 17 17 18 19 18 19 17 20 19 17 17 17 18 17 17 18 19 18 19 17 19 22 27 26 21 21 22 20 22 26 29 26 30 32 32 29 26 26 26 29 33
21 21 20 20 18 18 18 18 19 20 19 20 18 19 19 19 19 19 19 20 18 20 19 19 23 21 22 21 22 24 24 25 23 25 28 32 32 29 28 26 27 27 29 31 35
22 21 20 21 22 21 20 21 20 21 20 21 20 23 19 20 19 20 21 21 21 20 23 22 26 25 29 26 27 29 26 26 26 25 28 26 27 25 22 24 27 29 31 34 35
21 20 22 22 22 22 22 20 21 21 20 20 23 23 21 19 25 25 22 23 22 24 25 25 26 29 35 29 30 30 25 25 21 19 25 28 28 24 29 29 29 31 34 33 33
Wind_Direction
316 313 307 299 292 281 269 263 258 249 238 229 219 215 207 204 184 148 169 149 141 122 103 107 120 119 129 126 119 111 112 119 111 101 139 163 160 107 89 92 96 109 97 102 112
316 312 305 299 292 281 275 266 256 242 229 224 220 210 194 175 158 174 168 129 115 119 111 117 109 112 124 119 109 101 106 115 113 125 150 187 154 149 101 113 98 113 76 76 113
315 311 307 302 296 289 280 268 254 234 228 222 215 202 177 150 139 135 130 130 123 117 106 108 99 103 104 89 97 81 104 93 137 182 175 128 150 147 107 127 161 143 119 103 124
315 312 308 305 301 293 284 274 260 243 228 214 197 182 147 115 75 109 105 116 123 110 90 84 90 81 97 93 85 89 106 118 144 100 109 117 139 120 182 201 209 120 125 135 142
317 314 311 310 304 295 288 281 265 235 199 152 127 101 65 82 70 17 78 101 111 101 97 71 88 66 85 89 75 101 90 90 158 191 202 201 219 204 210 209 215 150 124 149 149
318 316 314 313 307 299 294 287 263 216 123 104 96 95 80 65 60 63 76 91 103 84 86 78 65 64 38 80 96 50 100 200 178 192 137 129 164 57 104 95 153 134 145 157 163
318 318 316 314 311 306 302 291 280 30 68 68 75 77 73 55 50 78 79 79 89 91 64 84 50 48 34 83 29 90 208 211 56 58 70 64 89 86 82 132 142 117 138 151 164
319 319 317 315 313 312 309 304 330 19 36 44 53 44 51 46 57 76 64 56 68 71 39 25 66 29 27 24 39 95 76 85 62 47 51 64 68 83 41 71 61 99 138 135 145
320 318 317 315 314 313 314 327 357 12 28 35 19 26 52 50 52 63 73 41 58 60 55 35 44 29 35 50 59 46 74 81 71 39 40 45 55 41 61 115 74 225 155 111 120
317 317 317 315 311 313 316 341 356 359 355 9 21 32 44 52 41 41 64 53 44 50 39 27 25 39 33 45 36 41 49 49 79 36 36 42 34 15 8 24 345 311 274 299 343
317 317 316 313 306 310 340 342 347 358 348 357 353 7 21 23 38 48 51 64 41 34 25 10 16 18 7 33 25 26 34 43 50 41 33 25 26 28 24 20 11 356 332 324 308
318 317 315 311 303 309 353 4 4 343 351 341 345 352 25 27 35 47 61 45 34 23 18 1 347 15 14 8 17 22 23 30 28 28 36 23 34 39 29 38 27 19 9 357 352
316 317 315 311 301 350 358 5 340 355 3 355 360 6 13 43 34 61 78 41 24 22 26 357 354 357 2 355 360 7 18 15 19 14 27 16 31 23 33 32 25 20 18 7 6
316 317 316 309 352 344 356 347 328 15 357 352 352 5 19 26 19 48 82 31 16 14 21 1 355 354 355 353 13 354 11 10 9 10 6 12 12 16 20 17 14 12 10 359 348
313 315 316 329 335 345 344 324 354 2 349 354 356 10 11 11 13 21 48 21 13 13 9 351 355 352 354 2 24 359 5 1 356 358 358 3 3 8 15 14 18 13 354 350 344
310 311 315 340 338 338 323 327 358 339 340 352 351 348 354 358 2 7 15 6 5 358 351 347 355 2 359 6 5 6 359 352 350 349 343 350 355 355 2 5 16 16 359 334 316
310 309 327 341 331 324 322 345 331 329 337 337 337 336 346 344 354 352 353 351 341 340 339 346 349 2 3 358 357 356 346 339 341 344 340 351 347 343 358 12 20 11 4 348 324
310 314 334 338 328 329 335 325 316 325 325 331 331 333 332 339 347 347 348 341 344 337 336 335 337 351 357 359 348 347 347 339 333 336 338 347 342 351 4 16 13 8 354 344 334
311 324 332 326 333 332 323 310 315 317 319 315 323 323 325 332 334 339 342 339 341 345 332 337 338 351 353 352 349 341 338 343 337 339 334 339 344 349 7 1 352 350 347 341 334
318 319 323 316 330 328 318 311 313 318 319 321 314 321 320 325 330 332 335 338 343 348 352 341 329 337 342 343 346 344 354 342 343 333 331 337 337 342 346 344 345 342 339 338 333
323 317 322 317 328 322 309 311 313 318 319 316 314 316 321 324 329 330 329 339 343 341 342 337 327 328 334 333 336 346 345 348 346 340 330 329 334 346 332 334 332 332 333 331 327
318 311 319 321 315 318 311 315 314 315 321 319 318 315 315 322 324 325 326 329 334 336 329 333 328 320 326 335 339 343 344 343 331 331 330 326 325 338 336 332 328 326 328 326 323
312 309 319 319 306 308 312 313 315 315 315 316 318 320 321 318 318 325 329 335 333 334 331 334 328 322 328 338 341 332 337 339 337 332 324 322 324 339 331 328 330 330 332 325 322
310 305 312 316 313 307 305 306 308 316 319 318 316 320 319 317 322 321 323 329 333 336 341 339 330 322 317 323 330 326 330 332 328 323 323 317 318 324 328 333 338 338 335 331 322
306 303 305 302 306 306 303 304 302 304 313 318 316 319 313 311 314 314 318 321 326 328 332 333 323 324 322 325 325 321 321 321 316 315 316 320 320 323 328 332 336 336 334 329 322
298 298 301 298 298 297 299 298 298 301 304 306 308 310 314 312 314 314 316 318 317 324 324 326 318 320 315 319 317 314 317 314 313 313 318 322 322 329 337 337 335 335 333 327 322
302 302 296 295 295 292 293 295 298 302 304 303 308 305 306 309 309 308 310 312 316 317 318 319 317 315 310 318 319 316 320 322 325 329 327 325 330 335 330 332 334 333 329 324 320